Aérodrome :
LOGIN :

S'inscrire | Disclaimer

   EN    FR    IT 

 










Légende :    VFR   VFR Marginal   IFR   IFR Intensif   IFR Très Intensif
Visi : 
Plafond : 
>= 8 km
>= 3000ft
5 à 8 km
1000 à 3000 ft
1500m à 5 km
500 à 1000 ft
800 à 1500m
200 à 500 ft
< 800m
< 200 ft
Symboles :   Orages  Brouillard  Fortes neiges  Fortes précipitations  Vent > 20 kt
SIGMETs :   Divers  Orages  Givrage  Turbulence  Onde Orograph.  Cendres Volcan.







- Altitude de l'aérodrome : 38 ft
- Code IATA : BOH
- Voir les cartes d'approche


EGHH - Bournemouth

DERNIER METAR :
  • 170950Z 17005KT 4000 -RADZ BR BKN003 14/13 Q1018

METARs EXPIRÉS :
  • 170920Z 19004KT 3500 -RADZ BR BKN004 BKN017 14/13 Q1018
  • 170850Z VRB03KT 8000 SCT006 BKN017 14/14 Q1018
  • 170820Z 19001KT 8000 SCT008 BKN017 BKN028 14/13 Q1018
  • 170750Z 17002KT 8000 SCT008 SCT016 BKN028 14/13 Q1018
  • 170720Z 18003KT 7000 SCT008 BKN028 13/13 Q1018

TAF TAF EGHH
Valide du 17 à 09h jusqu'au 17 à 18h UTC


170756Z 1709/1718 VRB05KT 5000 -RADZ SCT012
TEMPO 1709/1712 4000 DZ BR BKN004
BECMG 1712/1715 01010KT 9999 NSW
ATIS : +44 1202 364 151
Météo : +44 1202 364 158 (TAF)
Pas de NOTAMs connus pour ce terrain.



MET'MAP, la Météo Aéronautique d'un coup d'oeil ! - Copyright ORBIFLY Décembre 2007 - Disclaimer

ORBIFLY MET'MAP TEAM :

Programmation & Développement : Alexandra Zaïnal
Conception & Développement : Baudouin d'Aumeries
Co-Programmation & Développement : Marc-Olivier Méhu
Soutien technique & logistique : Manuel Goepfert

Contact : metmap@orbifly.com




SOURCES & CREDITS :

   NOAA